Tartu current weather conditions

sailwx.info

Wind at 2 knots

Air temperature 1.0° C
Visibility: greater than 3.8 NM
Dewpoint 1.0° C
Present weather: Mist.

Last reported at 2017-Nov-20 08:50 UTC.
Time now 2017-Nov-20 10:00 UTC

Location: N 58°18' E 026°41'.
View on Google Maps.

See reports from other nearby stations

  
Tides and Currents Weather Stations Pressure Air Temp Water Temp Dewpoint Dewpoint Depression Visibility Wind Speed Wind Dir Waves Ship Positions
date/time (UTC)wind fromknots sea level pressurealtimeterstation pressurevisibilityair tempwater tempwave heightnotes
2017-Nov-20 08:50 3.8 1.0 Mist.
2017-Nov-20 07:50 260 5 1.2 1.0
2017-Nov-20 06:50 0.2 1.0 Fog.
2017-Nov-20 05:50 0.2 1.0 Fog.
2017-Nov-20 04:50 130 1 1.1 1.0 Mist.
2017-Nov-20 03:50 120 2 1.3 1.0 Mist.
2017-Nov-20 02:50 150 1 2.5-0.0 Mist.
2017-Nov-20 01:50 140 1 2.7-0.0 Mist.
2017-Nov-20 00:50 150 2 3.2-0.0 Mist.
2017-Nov-19 23:50 150 2 4.3 1.0 Mist.
2017-Nov-19 22:50 190 2 5.4 1.0 Mist.
2017-Nov-19 21:50 190 4 5.4 1.0 Mist.
2017-Nov-19 20:50 170 4 5.4 1.0 Mist.
2017-Nov-19 19:50 160 4 5.4 1.0
2017-Nov-19 18:50 150 4 5.4 1.0
2017-Nov-19 17:50 150 5 2.3-0.0 Light snow. Mist.
2017-Nov-19 16:50 140 5 1.8-0.0 Light snow. Mist.
2017-Nov-19 15:50 130 6 4.3 1.0 Light drizzle snow.
2017-Nov-19 14:50 140 6 4.9 1.0 Light rain.
2017-Nov-19 13:50 140 6 2.2 1.0 Light drizzle snow.
2017-Nov-19 12:50 150 8 5.4 2.0
2017-Nov-19 11:50 150 7 5.4 2.0
2017-Nov-19 10:50 160 9 5.4 2.0 Light rain.
2017-Nov-19 09:50 160 8 5.4 2.0
2017-Nov-19 08:50 160 11 5.4 2.0
2017-Nov-19 07:50 150 8 5.4 2.0
2017-Nov-19 06:50 160 9 5.4 2.0
2017-Nov-19 05:50 160 8 5.4 2.0
2017-Nov-19 04:50 150 9 5.4 3.0
2017-Nov-19 03:50 160 9 5.4 3.0
2017-Nov-19 02:50 170 9 5.4 3.0
2017-Nov-19 01:50 160 9 5.4 3.0
2017-Nov-19 00:50 170 9 5.4 2.0
2017-Nov-18 23:50 160 11 5.4 2.0
2017-Nov-18 22:50 170 8 5.4 3.0
2017-Nov-18 21:50 170 11 5.4 3.0
2017-Nov-18 20:50 180 11 5.4 4.0
2017-Nov-18 19:50 180 8 5.4 4.0
2017-Nov-18 18:50 190 9 5.4 4.0
2017-Nov-18 17:50 210 12 5.4 4.0
2017-Nov-18 16:50 200 14 5.4 4.0
2017-Nov-18 15:50 190 13 5.4 4.0
2017-Nov-18 14:50 200 11 5.4 4.0
2017-Nov-18 13:50 200 11 5.4 4.0
2017-Nov-18 12:50 190 12 5.4 4.0
2017-Nov-18 11:50 210 13 5.4 5.0
2017-Nov-18 10:50 210 13 5.4 5.0